SCP
0 0 0 0 0 0 0 0 0 0 0 0 0 0 0 0 0 0 0 0 0 0
0 0 0 0 0 0 0 0 0 0 0 0 0 0 0 0 0 0 0 0 0 0
0 0 0 0 0 0 0 0 0 0 0 0 0 0 0 0 0 0 0 0 0 0
0 0 0 0 0 0 0 0 0 0 0 0 0 0 0 0 0 0 0 0 0 0
0 0 0 0 0 0 0 0 0 0 0 0 0 0 0 0 0 0 0 0 0 0
0 0 0 0 0 0 0 0 0 0 0 0 0 0 0 0 0 0 0 0 0 0
0 0 0 0 0 0 0 0 0 0 0 0 0 0 0 0 0 0 0 -0 0 0
0 0 0 0 0 0 0 0 0 0 0 0 0 0 0 0 0 0 0 0 0 0
0 0 0 0 0 0 0 0 0 0 0 0 0 0 0 0 0 0 0 0 0 0
0 0 0 0 0 0 0 0 0 0 0 0 0 0 0 0 0 0 0 0 0 0
0 0 0 0 0 0 0 0 0 0 0 0 0 0 0 0 0 0 0 0 0 0
0 0 0 0 0 0 0 0 0 0 0 0 0 0 0 0 0 0 0 0 0 0
0 0 0 0 0 0 0 0 0 0 0 0 0 0 0 0 0 0 0 0 0 0
0 0 0 0 0 0 0 0 0 0 0 0 0 0 0 0 0 0 0 0 0 0
Wind_Speed_500mb
3 2 5 9 13 7 8 12 22 18 20 20 23 23 23 21 26 23 29 29 24 20
3 5 9 11 5 8 10 15 18 19 19 19 22 24 26 24 30 25 27 27 25 23
7 8 15 11 11 12 15 16 18 21 21 20 22 24 27 26 26 32 28 24 25 24
9 13 16 14 15 17 20 20 20 21 22 23 23 24 28 33 31 29 36 33 29 29
15 16 17 16 17 19 21 22 23 25 24 25 26 26 28 31 31 32 36 38 36 36
16 20 21 20 21 23 23 24 25 27 27 27 28 29 30 31 30 36 37 38 35 35
19 20 21 23 23 25 25 27 29 29 30 31 31 30 30 27 37 38 37 37 35 35
18 19 21 23 24 26 27 29 31 32 32 33 33 31 32 38 39 40 40 35 32 32
16 19 24 27 28 28 29 29 31 33 34 35 34 38 48 43 47 47 40 31 27 32
20 25 29 32 36 36 35 34 34 33 33 35 37 40 47 46 47 52 39 27 32 35
30 34 35 38 41 41 44 43 44 38 35 36 37 41 46 42 45 45 29 28 37 31
32 38 40 43 45 45 45 49 50 43 41 40 40 40 45 41 39 32 32 31 32 24
31 33 35 37 40 42 44 43 40 42 46 44 44 42 42 37 29 29 29 30 29 33
29 30 29 33 31 35 41 42 44 47 48 47 45 42 38 27 28 26 27 32 30 38
Wind_Direction_500mb
94 276 338 317 295 285 302 314 313 314 322 320 320 321 323 344 327 323 319 321 316 321
274 328 305 308 318 288 315 317 301 315 317 318 316 314 315 322 325 322 322 322 312 306
294 317 320 300 290 304 312 318 322 318 314 314 315 314 308 311 311 307 318 308 303 304
295 303 314 291 288 302 310 315 318 315 310 311 311 309 308 310 314 304 305 302 295 294
288 299 311 297 291 299 306 308 312 315 306 303 306 305 307 307 306 306 304 301 300 295
286 294 309 304 290 297 299 301 303 306 305 299 299 302 305 303 307 305 300 297 297 293
289 297 302 303 297 292 298 294 294 297 303 299 298 297 301 298 306 305 297 290 287 286
293 298 298 296 295 291 289 292 292 293 296 300 299 300 284 297 307 305 300 289 280 283
292 296 295 291 289 287 286 285 287 288 291 293 298 293 291 299 305 311 301 288 283 270
286 288 291 289 285 281 279 280 281 283 287 291 289 292 298 307 307 310 297 270 275 279
288 287 287 287 282 282 281 280 279 282 281 283 289 290 297 311 310 314 303 280 280 282
297 294 293 291 287 293 287 282 279 277 278 278 281 284 289 304 307 306 289 285 275 293
306 298 298 297 292 290 290 286 283 278 275 276 279 280 292 299 298 299 291 280 279 268
293 294 313 291 285 291 293 292 289 287 281 276 275 269 276 299 305 295 291 286 282 284
Wind_Speed_850mb
3 2 5 9 13 7 8 12 22 18 20 20 23 23 23 21 26 23 29 29 24 20
3 5 9 11 5 8 10 15 18 19 19 19 22 24 26 24 30 25 27 27 25 23
7 8 15 11 11 12 15 16 18 21 21 20 22 24 27 26 26 32 28 24 25 24
9 13 16 14 15 17 20 20 20 21 22 23 23 24 28 33 31 29 36 33 29 29
15 16 17 16 17 19 21 22 23 25 24 25 26 26 28 31 31 32 36 38 36 36
16 20 21 20 21 23 23 24 25 27 27 27 28 29 30 31 30 36 37 38 35 35
19 20 21 23 23 25 25 27 29 29 30 31 31 30 30 27 37 38 37 37 35 35
18 19 21 23 24 26 27 29 31 32 32 33 33 31 32 38 39 40 40 35 32 32
16 19 24 27 28 28 29 29 31 33 34 35 34 38 48 43 47 47 40 31 27 32
20 25 29 32 36 36 35 34 34 33 33 35 37 40 47 46 47 52 39 27 32 35
30 34 35 38 41 41 44 43 44 38 35 36 37 41 46 42 45 45 29 28 37 31
32 38 40 43 45 45 45 49 50 43 41 40 40 40 45 41 39 32 32 31 32 24
31 33 35 37 40 42 44 43 40 42 46 44 44 42 42 37 29 29 29 30 29 33
29 30 29 33 31 35 41 42 44 47 48 47 45 42 38 27 28 26 27 32 30 38
Wind_Direction_850mb
94 276 338 317 295 285 302 314 313 314 322 320 320 321 323 344 327 323 319 321 316 321
274 328 305 308 318 288 315 317 301 315 317 318 316 314 315 322 325 322 322 322 312 306
294 317 320 300 290 304 312 318 322 318 314 314 315 314 308 311 311 307 318 308 303 304
295 303 314 291 288 302 310 315 318 315 310 311 311 309 308 310 314 304 305 302 295 294
288 299 311 297 291 299 306 308 312 315 306 303 306 305 307 307 306 306 304 301 300 295
286 294 309 304 290 297 299 301 303 306 305 299 299 302 305 303 307 305 300 297 297 293
289 297 302 303 297 292 298 294 294 297 303 299 298 297 301 298 306 305 297 290 287 286
293 298 298 296 295 291 289 292 292 293 296 300 299 300 284 297 307 305 300 289 280 283
292 296 295 291 289 287 286 285 287 288 291 293 298 293 291 299 305 311 301 288 283 270
286 288 291 289 285 281 279 280 281 283 287 291 289 292 298 307 307 310 297 270 275 279
288 287 287 287 282 282 281 280 279 282 281 283 289 290 297 311 310 314 303 280 280 282
297 294 293 291 287 293 287 282 279 277 278 278 281 284 289 304 307 306 289 285 275 293
306 298 298 297 292 290 290 286 283 278 275 276 279 280 292 299 298 299 291 280 279 268
293 294 313 291 285 291 293 292 289 287 281 276 275 269 276 299 305 295 291 286 282 284